Wind_Speed
19 19 20 20 20 20 20 20 20 20 19 19 19 19 19 19 19 19 19 19 19 19 19 18 19 19 19 19 19 20 20 20 21 21 21 21 22 22 22 22 22 21 22
21 21 21 21 21 21 21 20 21 21 21 20 20 20 19 19 19 20 20 20 20 20 20 19 19 19 19 19 20 20 20 20 20 21 21 21 22 22 23 23 23 22 23
22 22 22 22 22 22 21 22 22 22 22 21 21 20 20 21 21 22 21 21 21 20 20 20 20 20 19 19 20 20 21 21 21 21 22 22 23 23 23 24 24 24 24
24 24 24 24 24 24 24 23 23 23 23 22 22 22 21 22 22 21 21 21 21 21 21 21 21 20 21 21 20 21 21 21 21 22 23 23 24 24 25 25 25 26 26
25 25 25 25 25 26 26 25 25 25 25 25 24 24 23 23 23 22 22 22 22 23 22 22 22 22 22 22 22 22 22 22 23 23 24 24 25 25 26 27 27 27 28
26 26 27 26 27 27 26 26 26 26 26 25 25 25 25 24 24 23 23 23 23 23 23 24 24 24 24 24 24 24 24 24 25 25 26 26 26 26 27 28 28 28 29
27 27 27 27 27 28 27 28 27 27 26 26 25 25 25 25 25 24 25 24 24 24 25 25 25 26 25 25 26 26 26 26 27 27 27 27 27 28 29 29 29 30 30
28 28 28 28 28 28 28 28 29 28 27 26 25 25 25 25 26 26 26 26 26 26 26 26 26 26 26 26 26 27 27 28 28 28 28 28 29 29 30 30 31 31 32
29 29 29 30 30 30 29 29 29 29 28 27 27 26 26 26 27 27 27 27 27 27 27 27 27 27 27 27 28 28 28 29 29 30 30 31 31 31 31 31 32 33 32
30 30 30 31 31 31 31 31 30 29 29 28 28 28 28 28 28 28 29 29 28 28 28 28 28 28 28 28 28 29 29 29 30 31 31 32 32 32 33 33 34 34 33
30 30 30 31 31 31 31 31 31 31 31 30 30 30 30 29 29 29 29 28 29 29 28 29 29 29 29 29 29 29 29 30 30 30 31 32 32 33 33 34 34 34 33
31 31 31 31 31 31 32 32 32 32 32 32 32 32 31 31 30 30 30 30 29 29 28 29 29 29 29 30 30 30 30 31 31 31 32 33 33 33 33 34 34 34 34
31 31 31 31 31 31 32 32 32 32 33 33 33 32 32 32 31 31 31 30 30 30 30 29 29 29 30 30 30 31 31 32 32 33 32 33 33 33 34 34 34 34 33
33 33 32 32 32 32 32 33 32 32 33 34 34 33 33 32 32 31 31 31 31 31 31 31 30 30 30 31 31 32 32 32 32 32 32 32 32 33 33 33 33 33 33
36 35 34 34 33 33 33 34 34 34 34 34 33 34 33 33 32 32 31 31 31 31 32 32 31 31 31 31 32 32 32 32 32 32 32 32 32 32 32 32 32 32 31
36 36 35 35 34 34 34 34 34 35 35 35 35 34 34 33 33 32 32 31 31 31 31 31 31 31 31 31 31 31 32 32 31 31 32 32 32 31 31 31 31 30 30
36 36 35 35 35 35 35 35 34 34 35 35 35 35 35 34 33 33 33 32 32 32 32 32 32 32 32 31 31 31 31 31 30 31 31 31 30 30 30 30 30 29 29
35 35 35 35 35 35 35 35 34 34 34 34 35 35 35 34 34 34 34 33 33 33 33 33 33 32 32 31 31 31 30 29 29 30 30 30 29 29 28 28 28 28 28
34 34 35 36 36 35 35 34 34 34 34 34 34 34 34 34 33 33 34 33 34 34 33 32 32 31 31 30 29 28 28 28 28 28 28 27 27 27 27 27 27 27 28
33 33 33 34 35 35 34 34 34 34 33 34 34 33 32 33 33 33 33 32 33 33 33 32 31 30 29 29 28 27 27 27 27 27 27 26 26 26 26 26 26 26 26
32 32 33 33 33 33 33 33 33 33 33 33 33 32 32 31 32 32 32 32 32 31 31 30 30 29 29 29 29 28 27 27 27 26 26 25 25 25 25 25 24 24 25
31 32 32 32 32 31 31 31 31 31 31 31 31 30 31 31 31 30 30 30 30 30 29 29 29 28 28 28 28 27 27 27 26 26 26 25 24 24 24 24 23 23 23
30 30 30 30 31 30 30 30 29 29 30 30 30 30 30 30 29 30 31 31 30 29 29 29 28 28 28 28 28 27 27 26 26 25 24 24 24 24 24 24 24 23 23
29 29 29 28 28 29 29 28 28 28 28 29 29 29 29 30 30 31 30 29 29 29 28 28 28 28 28 29 28 28 27 26 26 25 25 24 24 24 24 23 23 23 23
27 27 27 27 27 28 28 27 27 27 28 28 29 29 29 29 30 29 29 29 28 28 28 27 27 27 27 28 28 28 27 27 26 26 25 24 24 23 23 23 22 23 23
26 26 26 27 27 27 26 26 26 27 27 28 28 28 28 28 28 28 28 28 28 28 28 27 27 27 27 27 27 26 26 26 26 25 25 24 23 23 23 23 23 23 23
Wind_Direction
270 270 270 272 272 271 270 272 274 276 279 281 282 283 285 287 288 288 290 292 293 292 290 287 285 284 281 279 277 275 274 273 271 271 271 269 267 267 266 266 267 268 268
271 271 271 271 271 271 270 271 273 275 277 280 281 282 284 286 288 289 290 291 291 291 289 287 284 283 282 280 279 277 275 273 271 270 270 270 270 269 268 267 267 267 269
272 271 272 271 271 270 271 271 272 275 276 278 280 281 283 285 287 288 287 288 289 289 288 287 284 282 280 279 278 277 275 272 271 271 271 271 271 271 269 268 268 269 270
272 271 270 270 270 270 271 272 273 273 274 276 277 280 282 284 286 287 287 288 288 288 287 286 284 281 280 277 277 276 275 273 272 272 273 273 273 272 271 270 269 270 272
272 272 270 270 271 271 271 271 271 272 273 274 275 278 279 281 283 284 286 287 287 287 287 286 284 281 281 278 277 275 275 274 274 275 275 274 273 273 273 271 269 271 272
273 272 270 270 270 271 271 270 270 270 271 273 274 275 276 278 280 282 284 285 285 286 286 285 283 281 280 278 277 275 274 274 275 276 275 274 273 273 273 273 271 271 272
274 273 271 270 270 271 270 269 269 270 271 274 276 275 276 277 279 281 282 282 283 283 283 283 283 281 280 279 278 277 276 276 276 276 275 274 274 273 273 273 273 273 273
274 273 272 270 270 270 270 269 269 269 270 272 274 275 277 278 279 280 280 281 281 281 281 281 281 280 280 280 280 279 278 277 277 276 276 275 275 274 274 274 274 274 273
273 274 273 271 270 270 271 272 270 269 269 271 272 274 276 278 278 279 279 279 279 280 280 279 279 279 280 280 280 280 278 277 277 277 277 276 276 275 275 275 275 275 273
274 273 272 272 272 271 271 271 270 269 268 270 272 273 274 276 277 278 278 278 278 280 279 278 278 279 280 281 281 281 280 279 279 278 278 277 276 276 276 276 277 275 273
275 274 273 272 272 272 271 270 270 270 269 270 271 272 273 274 277 278 278 279 278 277 278 278 279 280 279 278 279 280 280 280 280 279 279 279 278 277 276 277 276 274 272
276 274 272 272 273 272 272 272 270 270 270 270 270 272 274 275 275 275 276 278 278 278 279 278 277 278 278 277 278 278 279 280 280 280 280 279 278 277 277 276 275 274 273
277 275 274 274 273 273 271 270 271 271 271 271 271 271 273 274 275 275 276 276 277 278 278 278 278 278 278 278 279 279 279 280 280 280 280 280 279 279 278 277 276 274 272
277 276 275 275 274 271 270 269 270 269 270 271 270 270 272 273 274 274 275 276 276 276 278 278 279 279 280 280 280 280 280 280 280 280 279 278 279 279 279 278 276 273 270
276 275 274 274 274 273 272 271 270 268 269 270 269 269 271 273 273 273 274 275 276 276 276 277 278 279 280 281 280 280 281 281 281 279 278 278 280 280 278 279 277 272 268
274 273 273 272 272 273 273 273 271 270 269 269 269 269 270 271 272 271 273 274 275 275 276 276 278 278 279 279 279 279 280 280 280 280 281 280 280 280 279 278 276 272 269
274 272 271 270 272 272 273 273 273 271 269 269 269 268 269 270 271 272 273 273 274 275 276 277 278 279 278 279 279 280 281 281 281 281 281 280 279 279 278 277 276 271 268
274 272 272 271 271 271 272 272 272 271 271 271 269 267 268 270 272 272 273 273 274 275 277 278 278 278 277 278 279 279 279 280 281 281 281 280 279 279 278 277 275 273 268
275 274 273 272 272 271 271 271 269 268 269 270 269 268 268 268 270 271 273 274 274 274 276 276 276 276 277 277 278 278 278 279 281 281 281 280 280 278 277 276 274 272 268
278 277 276 274 274 273 271 270 269 268 268 268 269 269 269 270 270 272 273 273 273 273 274 274 273 274 274 275 277 278 279 280 281 280 280 280 280 278 277 276 272 270 267
279 278 277 276 276 274 272 271 269 268 268 268 268 269 269 270 272 273 274 273 273 274 275 274 273 272 273 274 275 277 279 280 281 280 279 280 279 277 276 275 272 270 268
279 278 278 276 275 275 273 272 271 270 269 268 267 268 269 270 271 272 274 274 273 273 273 272 271 270 272 273 273 274 277 279 281 280 278 278 277 275 274 273 271 270 269
280 279 278 277 274 274 274 272 271 270 269 267 267 268 270 271 271 272 272 272 272 272 272 270 268 268 270 271 272 273 276 278 279 278 276 275 275 274 273 271 270 269 267
282 280 279 278 276 274 274 271 269 269 269 268 268 269 270 271 272 272 271 271 271 272 272 271 269 269 270 271 272 273 275 275 276 275 275 274 274 274 272 271 269 268 267
283 281 279 277 276 275 274 271 268 268 268 268 268 269 269 270 272 272 271 270 269 270 271 271 271 271 271 271 271 271 273 274 275 274 273 273 272 271 270 270 269 269 267
282 281 279 278 277 276 274 272 269 268 269 269 270 269 269 269 270 271 272 271 270 270 271 271 270 269 270 270 270 270 271 273 274 273 272 270 270 269 268 268 269 269 268
Height
5796 5796 5796 5795 5794 5794 5793 5792 5792 5791 5790 5789 5788 5786 5785 5784 5783 5782 5780 5779 5778 5776 5775 5773 5772 5771 5770 5770 5769 5769 5768 5768 5768 5768 5767 5767 5767 5768 5768 5768 5768 5768 5768
5791 5790 5790 5789 5789 5788 5787 5786 5786 5785 5785 5784 5782 5781 5780 5779 5777 5776 5775 5774 5772 5771 5769 5768 5767 5766 5765 5764 5764 5763 5762 5762 5762 5762 5761 5761 5761 5761 5761 5761 5761 5761 5761
5785 5784 5784 5783 5782 5782 5781 5781 5780 5779 5778 5778 5776 5775 5774 5773 5772 5770 5769 5768 5767 5765 5764 5762 5761 5760 5759 5758 5758 5757 5756 5756 5755 5755 5755 5755 5755 5755 5755 5755 5755 5755 5754
5778 5778 5777 5776 5776 5775 5775 5774 5774 5773 5772 5771 5770 5769 5768 5767 5766 5764 5763 5762 5761 5759 5758 5756 5755 5754 5753 5752 5752 5751 5750 5750 5749 5749 5749 5748 5748 5748 5748 5748 5748 5747 5747
5771 5770 5770 5769 5769 5768 5768 5767 5767 5766 5765 5764 5763 5763 5762 5760 5759 5758 5757 5755 5754 5753 5751 5750 5749 5747 5747 5746 5745 5744 5744 5743 5743 5742 5742 5742 5741 5741 5740 5740 5740 5739 5739
5763 5762 5762 5761 5761 5761 5760 5760 5759 5758 5758 5757 5756 5755 5754 5753 5752 5751 5749 5748 5747 5746 5745 5743 5742 5741 5740 5739 5738 5737 5737 5736 5736 5735 5735 5734 5733 5733 5732 5732 5732 5731 5731
5755 5754 5754 5753 5753 5753 5752 5752 5751 5750 5750 5749 5748 5747 5747 5746 5745 5743 5742 5741 5740 5739 5737 5736 5735 5733 5732 5731 5730 5730 5729 5728 5728 5727 5727 5726 5725 5725 5724 5724 5723 5722 5722
5747 5746 5745 5745 5745 5744 5743 5743 5742 5742 5741 5741 5740 5739 5738 5738 5736 5735 5734 5733 5732 5730 5729 5728 5727 5725 5724 5724 5723 5722 5721 5720 5720 5719 5718 5717 5716 5716 5715 5715 5714 5713 5712
5738 5737 5736 5736 5735 5735 5735 5734 5734 5733 5732 5732 5731 5731 5730 5729 5728 5726 5725 5724 5723 5722 5721 5719 5718 5717 5716 5715 5715 5714 5713 5711 5710 5709 5709 5708 5707 5706 5705 5704 5704 5703 5702
5729 5728 5727 5726 5726 5726 5725 5725 5724 5724 5723 5723 5722 5722 5721 5720 5719 5717 5716 5715 5714 5713 5712 5711 5709 5708 5707 5706 5705 5705 5704 5702 5701 5700 5699 5698 5697 5696 5695 5694 5693 5692 5691
5719 5718 5718 5717 5716 5716 5715 5715 5714 5714 5714 5714 5713 5713 5712 5711 5709 5708 5707 5706 5705 5704 5703 5702 5700 5699 5698 5697 5696 5696 5694 5693 5692 5691 5690 5688 5687 5685 5684 5683 5682 5681 5680
5710 5709 5708 5707 5707 5706 5706 5705 5705 5704 5704 5704 5704 5703 5702 5701 5700 5698 5697 5696 5695 5694 5694 5692 5691 5690 5689 5688 5687 5686 5685 5684 5682 5681 5680 5678 5676 5675 5673 5672 5671 5670 5669
5700 5699 5698 5697 5697 5696 5696 5695 5695 5694 5694 5694 5693 5693 5692 5691 5690 5689 5688 5687 5686 5685 5684 5683 5682 5681 5680 5679 5678 5676 5675 5673 5672 5671 5669 5667 5666 5664 5663 5661 5659 5659 5658
5689 5688 5687 5687 5686 5686 5685 5684 5684 5684 5683 5683 5683 5682 5682 5681 5680 5679 5678 5677 5677 5676 5675 5674 5673 5672 5670 5669 5668 5666 5665 5663 5662 5660 5658 5657 5655 5654 5652 5650 5649 5648 5648
5678 5677 5677 5676 5676 5675 5674 5673 5673 5673 5672 5672 5672 5672 5671 5671 5670 5670 5669 5668 5667 5666 5665 5664 5663 5662 5661 5659 5658 5656 5655 5653 5652 5650 5648 5647 5645 5643 5641 5640 5639 5637 5637
5666 5666 5665 5665 5664 5664 5663 5662 5661 5661 5661 5660 5660 5660 5660 5660 5660 5659 5658 5658 5657 5656 5655 5654 5653 5652 5651 5649 5648 5646 5645 5643 5642 5640 5639 5637 5635 5633 5632 5630 5628 5628 5627
5654 5654 5653 5653 5653 5653 5652 5651 5651 5650 5650 5650 5649 5649 5649 5649 5649 5648 5648 5647 5646 5646 5645 5644 5643 5642 5640 5639 5638 5637 5635 5634 5632 5630 5629 5627 5625 5624 5622 5621 5619 5618 5618
5642 5642 5642 5641 5641 5641 5640 5640 5639 5639 5639 5638 5638 5637 5637 5637 5638 5637 5637 5636 5636 5635 5635 5634 5633 5631 5630 5629 5628 5627 5626 5624 5622 5621 5619 5618 5616 5615 5613 5612 5611 5610 5609
5631 5630 5630 5629 5629 5629 5628 5628 5628 5628 5628 5627 5627 5626 5626 5626 5626 5626 5626 5625 5625 5624 5624 5623 5622 5621 5620 5620 5619 5617 5616 5615 5613 5612 5610 5608 5607 5606 5604 5603 5602 5601 5601
5620 5619 5618 5618 5617 5616 5616 5616 5616 5616 5616 5616 5616 5616 5616 5615 5615 5615 5615 5615 5614 5613 5613 5612 5612 5611 5610 5610 5609 5608 5607 5605 5604 5603 5601 5600 5599 5597 5596 5595 5594 5594 5593
5609 5608 5607 5606 5605 5605 5604 5604 5604 5604 5605 5605 5605 5605 5605 5605 5605 5605 5604 5604 5603 5603 5602 5602 5602 5601 5601 5600 5600 5599 5597 5596 5595 5594 5593 5592 5590 5589 5588 5587 5586 5586 5586
5598 5597 5596 5595 5594 5594 5593 5593 5593 5593 5594 5594 5594 5595 5595 5595 5594 5594 5594 5593 5593 5592 5592 5592 5592 5591 5591 5590 5590 5589 5588 5588 5586 5585 5584 5583 5582 5581 5580 5579 5579 5578 5578
5588 5587 5585 5584 5584 5583 5583 5583 5583 5583 5583 5584 5584 5584 5584 5584 5584 5584 5583 5583 5583 5582 5582 5582 5582 5582 5581 5581 5580 5580 5579 5579 5578 5576 5575 5575 5574 5573 5572 5572 5571 5571 5570
5577 5576 5575 5574 5574 5573 5573 5573 5573 5573 5573 5573 5574 5574 5574 5574 5574 5573 5573 5572 5572 5572 5572 5572 5572 5572 5572 5571 5571 5570 5570 5569 5568 5567 5567 5566 5566 5565 5564 5563 5563 5563 5563
5568 5567 5566 5565 5564 5564 5563 5563 5563 5563 5563 5564 5564 5564 5564 5564 5563 5563 5563 5562 5562 5562 5562 5562 5562 5562 5562 5562 5561 5561 5560 5560 5559 5558 5558 5557 5557 5556 5556 5556 5555 5555 5555
5559 5558 5557 5556 5555 5555 5554 5554 5554 5554 5554 5554 5554 5554 5554 5553 5553 5553 5553 5553 5553 5552 5553 5552 5552 5552 5552 5552 5552 5551 5551 5550 5550 5549 5549 5549 5548 5548 5548 5548 5548 5547 5547